TimeEST,TemperatureF,Dew PointF,Humidity,Sea Level PressureIn,VisibilityMPH,Wind Direction,Wind SpeedMPH,Gust SpeedMPH,PrecipitationIn,Events,Conditions,WindDirDegrees,DateUTC
12:53 AM,32.0,21.9,66,30.29,10.0,SSW,3.5,-,N/A,,Clear,210,2013-01-08 05:53:00
1:53 AM,33.1,23.0,66,30.28,10.0,South,3.5,-,N/A,,Clear,190,2013-01-08 06:53:00
2:53 AM,33.1,23.0,66,30.28,10.0,South,3.5,-,N/A,,Clear,190,2013-01-08 07:53:00
3:53 AM,33.1,24.1,70,30.30,10.0,SSW,4.6,-,N/A,,Clear,210,2013-01-08 08:53:00
4:53 AM,33.1,24.1,70,30.30,10.0,Calm,Calm,-,N/A,,Clear,0,2013-01-08 09:53:00
5:53 AM,34.0,24.1,67,30.32,10.0,Calm,Calm,-,N/A,,Clear,0,2013-01-08 10:53:00
6:53 AM,30.9,24.1,76,30.34,10.0,Calm,Calm,-,N/A,,Clear,0,2013-01-08 11:53:00
7:53 AM,34.0,24.1,67,30.36,10.0,Calm,Calm,-,N/A,,Clear,0,2013-01-08 12:53:00
8:53 AM,35.6,24.8,65,30.36,10.0,Calm,Calm,-,N/A,,Clear,0,2013-01-08 13:53:00
9:53 AM,37.9,26.1,62,30.40,10.0,South,3.5,-,N/A,,Clear,190,2013-01-08 14:53:00
10:53 AM,42.1,27.0,55,30.40,10.0,Calm,Calm,-,N/A,,Clear,0,2013-01-08 15:53:00
11:53 AM,46.9,27.0,46,30.37,10.0,South,3.5,-,N/A,,Clear,180,2013-01-08 16:53:00
12:53 PM,48.0,26.1,42,30.34,10.0,Variable,4.6,-,N/A,,Clear,0,2013-01-08 17:53:00
1:53 PM,52.0,28.9,41,30.31,10.0,Variable,4.6,-,N/A,,Clear,0,2013-01-08 18:53:00
2:53 PM,54.0,30.9,41,30.30,10.0,Variable,4.6,-,N/A,,Clear,0,2013-01-08 19:53:00
3:53 PM,54.0,30.9,41,30.29,10.0,Calm,Calm,-,N/A,,Clear,0,2013-01-08 20:53:00
4:53 PM,53.1,30.9,43,30.28,10.0,Variable,3.5,-,N/A,,Clear,0,2013-01-08 21:53:00
5:53 PM,51.1,30.9,46,30.28,10.0,Calm,Calm,-,N/A,,Clear,0,2013-01-08 22:53:00
6:53 PM,50.0,30.9,48,30.29,10.0,South,3.5,-,N/A,,Partly Cloudy,170,2013-01-08 23:53:00
7:53 PM,46.9,32.0,56,30.30,10.0,SSW,3.5,-,N/A,,Clear,200,2013-01-09 00:53:00
8:53 PM,46.9,34.0,61,30.29,10.0,South,3.5,-,N/A,,Clear,180,2013-01-09 01:53:00
9:53 PM,46.0,36.0,68,30.29,10.0,SSW,3.5,-,N/A,,Clear,200,2013-01-09 02:53:00
10:53 PM,45.0,36.0,71,30.29,10.0,Calm,Calm,-,N/A,,Clear,0,2013-01-09 03:53:00
11:53 PM,45.0,35.1,68,30.28,10.0,South,3.5,-,N/A,,Clear,190,2013-01-09 04:53:00